TimeCDT,TemperatureF,Dew PointF,Humidity,Sea Level PressureIn,VisibilityMPH,Wind Direction,Wind SpeedMPH,Gust SpeedMPH,PrecipitationIn,Events,Conditions,WindDirDegrees,DateUTC
12:03 AM,51.8,41.0,67,29.73,10.0,NW,20.7,29.9,N/A,,Clear,310,2012-10-04 05:03:00
12:22 AM,48.2,41.0,76,29.73,10.0,NW,25.3,34.5,N/A,,Clear,320,2012-10-04 05:22:00
12:37 AM,48.2,41.0,76,29.74,10.0,NNW,20.7,34.5,N/A,,Clear,330,2012-10-04 05:37:00
1:04 AM,46.4,39.2,76,29.74,10.0,NW,25.3,35.7,N/A,,Scattered Clouds,310,2012-10-04 06:04:00
1:24 AM,46.4,39.2,76,29.76,10.0,NW,28.8,39.1,N/A,,Overcast,310,2012-10-04 06:24:00
1:41 AM,46.4,39.2,76,29.78,10.0,NW,25.3,41.4,N/A,,Overcast,310,2012-10-04 06:41:00
2:04 AM,44.6,37.4,76,29.81,10.0,NW,26.5,38.0,N/A,,Overcast,310,2012-10-04 07:04:00
2:24 AM,44.6,37.4,76,29.83,10.0,WNW,28.8,34.5,N/A,,Overcast,300,2012-10-04 07:24:00
2:44 AM,44.6,37.4,76,29.85,10.0,WNW,26.5,36.8,N/A,,Overcast,300,2012-10-04 07:44:00
3:03 AM,44.6,37.4,76,29.85,10.0,NW,24.2,41.4,N/A,,Overcast,310,2012-10-04 08:03:00
3:22 AM,44.6,37.4,76,29.86,7.0,WNW,27.6,42.6,N/A,,Overcast,290,2012-10-04 08:22:00
3:44 AM,42.8,37.4,81,29.86,4.0,WNW,31.1,39.1,N/A,,Overcast,300,2012-10-04 08:44:00
3:50 AM,42.8,37.4,81,29.86,4.0,WNW,29.9,39.1,N/A,,Overcast,300,2012-10-04 08:50:00
4:23 AM,39.2,33.8,81,29.89,10.0,WNW,24.2,43.7,N/A,,Overcast,300,2012-10-04 09:23:00
4:43 AM,39.2,33.8,81,29.91,10.0,WNW,26.5,38.0,N/A,,Overcast,300,2012-10-04 09:43:00
5:01 AM,39.2,33.8,81,29.92,10.0,NW,27.6,39.1,N/A,,Overcast,310,2012-10-04 10:01:00
5:23 AM,39.2,33.8,81,29.93,10.0,NW,27.6,44.9,N/A,,Overcast,310,2012-10-04 10:23:00
5:27 AM,39.2,33.8,81,29.93,10.0,NW,26.5,41.4,N/A,,Overcast,310,2012-10-04 10:27:00
6:03 AM,39.2,32.0,75,29.95,10.0,NW,23.0,36.8,N/A,,Overcast,310,2012-10-04 11:03:00
6:12 AM,39.2,32.0,75,29.95,10.0,NW,29.9,38.0,N/A,,Overcast,310,2012-10-04 11:12:00
6:39 AM,39.2,33.8,81,29.98,10.0,NW,25.3,35.7,N/A,,Overcast,310,2012-10-04 11:39:00
6:56 AM,39.2,33.8,81,29.99,4.0,WNW,28.8,39.1,N/A,,Haze,300,2012-10-04 11:56:00
7:24 AM,37.4,33.8,87,30.01,3.0,NW,24.2,34.5,N/A,,Light Drizzle,310,2012-10-04 12:24:00
7:33 AM,37.4,33.8,87,30.01,3.0,WNW,23.0,31.1,N/A,,Light Drizzle,300,2012-10-04 12:33:00
8:02 AM,37.4,33.8,87,30.03,5.0,WNW,23.0,34.5,N/A,,Light Drizzle,300,2012-10-04 13:02:00
8:16 AM,37.4,33.8,87,30.03,10.0,NW,20.7,32.2,N/A,,Overcast,310,2012-10-04 13:16:00
8:44 AM,37.4,33.8,87,30.04,10.0,NW,19.6,32.2,N/A,,Overcast,310,2012-10-04 13:44:00
9:04 AM,37.4,32.0,81,30.06,10.0,NW,23.0,36.8,N/A,,Overcast,310,2012-10-04 14:04:00
9:17 AM,37.4,32.0,81,30.06,10.0,NW,25.3,35.7,N/A,,Overcast,320,2012-10-04 14:17:00
9:40 AM,39.2,32.0,75,30.07,10.0,NW,31.1,38.0,N/A,,Overcast,310,2012-10-04 14:40:00
10:04 AM,39.2,30.2,70,30.09,10.0,NW,21.9,35.7,N/A,,Overcast,310,2012-10-04 15:04:00
10:23 AM,39.2,30.2,70,30.10,10.0,NW,24.2,35.7,N/A,,Overcast,310,2012-10-04 15:23:00
10:32 AM,41.0,30.2,65,30.10,10.0,NW,24.2,33.4,N/A,,Overcast,310,2012-10-04 15:32:00
11:04 AM,41.0,30.2,65,30.11,10.0,NW,20.7,36.8,N/A,,Overcast,310,2012-10-04 16:04:00
11:08 AM,41.0,30.2,65,30.11,10.0,NW,29.9,36.8,N/A,,Overcast,320,2012-10-04 16:08:00
11:44 AM,42.8,30.2,61,30.12,10.0,NW,31.1,36.8,N/A,,Overcast,310,2012-10-04 16:44:00
12:03 PM,42.8,30.2,61,30.13,10.0,NW,20.7,34.5,N/A,,Overcast,310,2012-10-04 17:03:00
12:06 PM,42.8,30.2,61,30.13,10.0,WNW,19.6,34.5,N/A,,Overcast,300,2012-10-04 17:06:00
12:42 PM,42.8,30.2,61,30.14,10.0,NW,25.3,34.5,N/A,,Overcast,310,2012-10-04 17:42:00
12:56 PM,42.8,30.2,61,30.15,10.0,NW,21.9,33.4,N/A,,Overcast,310,2012-10-04 17:56:00
1:24 PM,42.8,30.2,61,30.15,10.0,NW,20.7,31.1,N/A,,Overcast,310,2012-10-04 18:24:00
1:37 PM,44.6,30.2,57,30.15,10.0,NW,20.7,29.9,N/A,,Overcast,310,2012-10-04 18:37:00
2:03 PM,44.6,30.2,57,30.15,10.0,NW,24.2,31.1,N/A,,Overcast,320,2012-10-04 19:03:00
2:34 PM,42.8,35.6,76,30.15,10.0,NW,20.7,32.2,N/A,Rain,Light Rain,310,2012-10-04 19:34:00
2:58 PM,42.8,32.0,66,30.16,10.0,NW,20.7,31.1,N/A,,Overcast,310,2012-10-04 19:58:00
3:22 PM,44.6,30.2,57,30.16,10.0,NW,27.6,33.4,N/A,,Overcast,310,2012-10-04 20:22:00
3:38 PM,44.6,30.2,57,30.17,10.0,NW,25.3,33.4,N/A,,Overcast,320,2012-10-04 20:38:00
4:02 PM,44.6,32.0,61,30.17,10.0,NW,19.6,24.2,N/A,,Overcast,320,2012-10-04 21:02:00
4:38 PM,44.6,30.2,57,30.18,10.0,NW,18.4,33.4,N/A,,Overcast,310,2012-10-04 21:38:00
4:59 PM,44.6,30.2,57,30.18,10.0,WNW,19.6,27.6,N/A,,Overcast,300,2012-10-04 21:59:00
5:07 PM,46.4,30.2,53,30.18,10.0,NW,17.3,25.3,N/A,,Overcast,310,2012-10-04 22:07:00
5:27 PM,44.6,30.2,57,30.19,10.0,NW,18.4,29.9,N/A,,Overcast,310,2012-10-04 22:27:00
5:57 PM,44.6,30.2,57,30.19,10.0,WNW,19.6,24.2,N/A,,Overcast,290,2012-10-04 22:57:00
6:09 PM,44.6,30.2,57,30.19,10.0,WNW,21.9,26.5,N/A,,Overcast,300,2012-10-04 23:09:00
6:42 PM,42.8,32.0,66,30.20,10.0,WNW,18.4,21.9,N/A,,Overcast,300,2012-10-04 23:42:00
7:01 PM,42.8,30.2,61,30.20,10.0,WNW,17.3,26.5,N/A,,Overcast,300,2012-10-05 00:01:00
7:20 PM,42.8,30.2,61,30.20,10.0,WNW,15.0,21.9,N/A,,Overcast,300,2012-10-05 00:20:00
7:30 PM,42.8,32.0,66,30.21,10.0,WNW,16.1,24.2,N/A,,Overcast,300,2012-10-05 00:30:00
7:55 PM,42.8,30.2,61,30.21,10.0,WNW,16.1,20.7,N/A,,Mostly Cloudy,300,2012-10-05 00:55:00
8:14 PM,41.0,30.2,65,30.21,10.0,WNW,12.7,-,N/A,,Scattered Clouds,300,2012-10-05 01:14:00
8:39 PM,42.8,32.0,66,30.22,10.0,WNW,19.6,25.3,N/A,,Overcast,300,2012-10-05 01:39:00
9:04 PM,42.8,32.0,66,30.22,10.0,NW,24.2,31.1,N/A,,Mostly Cloudy,310,2012-10-05 02:04:00
9:25 PM,42.8,30.2,61,30.23,10.0,WNW,21.9,27.6,N/A,,Overcast,300,2012-10-05 02:25:00
9:41 PM,42.8,30.2,61,30.22,10.0,WNW,21.9,26.5,N/A,,Overcast,290,2012-10-05 02:41:00
10:01 PM,42.8,30.2,61,30.23,10.0,WNW,16.1,27.6,N/A,,Overcast,290,2012-10-05 03:01:00
10:41 PM,42.8,28.4,57,30.23,10.0,WNW,15.0,26.5,N/A,,Overcast,300,2012-10-05 03:41:00
11:01 PM,42.8,26.6,53,30.23,10.0,WNW,15.0,20.7,N/A,,Overcast,290,2012-10-05 04:01:00
11:21 PM,42.8,24.8,49,30.23,10.0,NW,17.3,24.2,N/A,,Overcast,320,2012-10-05 04:21:00
11:41 PM,41.0,24.8,53,30.23,10.0,WNW,12.7,25.3,N/A,,Overcast,300,2012-10-05 04:41:00